TimeCDT,TemperatureF,Dew PointF,Humidity,Sea Level PressureIn,VisibilityMPH,Wind Direction,Wind SpeedMPH,Gust SpeedMPH,PrecipitationIn,Events,Conditions,WindDirDegrees,DateUTC
12:54 AM,36.0,28.0,73,30.04,10.0,Calm,Calm,-,N/A,,Clear,0,2013-04-05 05:54:00
1:54 AM,35.1,28.0,76,30.05,10.0,Calm,Calm,-,N/A,,Clear,0,2013-04-05 06:54:00
2:54 AM,33.1,27.0,78,30.05,10.0,Calm,Calm,-,N/A,,Clear,0,2013-04-05 07:54:00
3:54 AM,34.0,27.0,75,30.06,10.0,Calm,Calm,-,N/A,,Clear,0,2013-04-05 08:54:00
4:54 AM,33.1,27.0,78,30.08,10.0,Calm,Calm,-,N/A,,Clear,0,2013-04-05 09:54:00
5:54 AM,34.0,27.0,75,30.10,10.0,Calm,Calm,-,N/A,,Clear,0,2013-04-05 10:54:00
6:54 AM,33.1,27.0,78,30.11,10.0,Calm,Calm,-,N/A,,Clear,0,2013-04-05 11:54:00
7:54 AM,39.0,30.0,70,30.12,10.0,Calm,Calm,-,N/A,,Clear,0,2013-04-05 12:54:00
8:54 AM,52.0,30.9,45,30.12,10.0,West,3.5,-,N/A,,Clear,280,2013-04-05 13:54:00
9:54 AM,59.0,28.9,32,30.12,10.0,WNW,4.6,-,N/A,,Clear,300,2013-04-05 14:54:00
10:54 AM,61.0,33.1,35,30.13,10.0,NW,11.5,16.1,N/A,,Clear,320,2013-04-05 15:54:00
11:54 AM,63.0,32.0,31,30.12,10.0,NW,9.2,-,N/A,,Clear,320,2013-04-05 16:54:00
12:54 PM,64.9,35.1,33,30.12,10.0,NNW,10.4,-,N/A,,Clear,340,2013-04-05 17:54:00
1:54 PM,66.0,33.1,29,30.10,10.0,North,10.4,19.6,N/A,,Clear,360,2013-04-05 18:54:00
2:54 PM,66.9,33.1,28,30.08,10.0,NNE,11.5,18.4,N/A,,Clear,20,2013-04-05 19:54:00
3:54 PM,66.0,32.0,28,30.06,10.0,North,8.1,-,N/A,,Clear,350,2013-04-05 20:54:00
4:54 PM,66.0,30.9,27,30.07,10.0,NNW,10.4,-,N/A,,Clear,330,2013-04-05 21:54:00
5:54 PM,64.9,30.9,28,30.08,10.0,NW,8.1,-,N/A,,Clear,310,2013-04-05 22:54:00
6:54 PM,60.1,30.9,33,30.09,10.0,NW,5.8,-,N/A,,Clear,320,2013-04-05 23:54:00
7:54 PM,57.9,30.0,35,30.10,10.0,NW,3.5,-,N/A,,Clear,320,2013-04-06 00:54:00
8:54 PM,53.1,30.9,43,30.12,10.0,North,4.6,-,N/A,,Clear,350,2013-04-06 01:54:00
9:54 PM,52.0,32.0,47,30.13,10.0,NE,3.5,-,N/A,,Clear,40,2013-04-06 02:54:00
10:54 PM,48.0,34.0,58,30.13,10.0,Calm,Calm,-,N/A,,Clear,0,2013-04-06 03:54:00
11:54 PM,46.9,35.1,63,30.11,10.0,ENE,3.5,-,N/A,,Clear,70,2013-04-06 04:54:00